HST
1 20580U 90037B 24298.42868144 .00012084 00000-0 52893-3 0 9991
2 20580 28.4668 197.6713 0002833 9.1825 350.8820 15.20462166696703
ISS (ZARYA)
1 25544U 98067A 24299.47422089 .00136615 00000-0 23242-2 0 9999
2 25544 51.6386 30.0506 0009349 106.1770 343.9010 15.50396418478755
CXO
1 25867U 99040B 24300.08143777 .00000840 00000-0 00000-0 0 9998
2 25867 44.1200 143.2501 8753999 303.2600 0.0818 0.37809941 15050